DELTA 1 DEB, 10871

Orbit data source: Space-Track

DELTA 1 DEB, 10871 is space debris in SSO originally from a launch on Thu, 29 Jul 1976 UTC launched from the Air Force Western Test Range (AFWTR). Debris objects in space refer to the collection of defunct objects orbiting the Earth. Examples of debris include non-operational satellites, rocket bodies, and fragments generated from explosions, collisions, or faulty payload assembly.

Loading next visibility...
Identifier
10871, 1976-077CZ
Orbit
SSO
Country
Flag of USUS
Related business
Manufacturer
Unknown
Mission
Spacecraft
Bus & Motor
Unknown
Mass
Unknown
Launch date (UTC)
1976-07-29 (50 years ago)
Launch vehicle
Unknown
Launch site
Air Force Western Test Range (AFWTR)
Object type
Payload
Rocket body
Debris
Shape & HBR
Unknown shape, 0.1 m
Radar Cross Section
Medium (>0.1 m² and <1 m²)

Expand to show TLE details & history
Last TLE update: 1 day ago

TLE from 1 day ago
0 DELTA 1 DEB
1 10871U 76077CZ  26264.80859512  .00000172  00000-0  14679-2 0  9991
2 10871 101.8984 240.3035 0275120 311.2004 120.6992 12.37719435259316
Epoch: 2026-09-21T19:24Z
TLE epoch observation values (Epoch: 2026-09-21T19:24:22.618Z)
Latitude
70.66993°
Longitude
-88.18515°
Altitude
1,643.554 km
Speed
7.005 km/s
True Right ascension
13h 34m 22s
True Declination
70° 34' 27"
Sunlit
Object was in daylight at epoch
Visualization orbit readout
Latitude
Unknown
Longitude
Unknown
Altitude
Unknown
Speed
Unknown
Apparent Right ascension
Unknown
Apparent Declination
Unknown
Sunlit
N/A
Visualization observer readout
Local Sidereal Time
19:29:32
Azimuth
Unknown
Elevation
Unknown
Doppler factor
Unknown
Orbital elements
Apogee altitude
1,730.979 km
Perigee altitude
1,296.73 km
Semi-major axis
7,891.991 km
Eccentricity
0.02751
Inclination
101.8984°
RAAN
240.3035°
Arg. of periapsis
311.2004°
True anomaly
123.36227°
Mean anomaly
120.6992°
Eccentric anomaly
122.03548°
Mean motion
3.09573 °/min
Orbital period
116.29 mins
BSTAR
0.0014679
Loading maneuver chart data...
Computing Atmospheric mass density...
Loading historical data...
Loading historical data...
Loading historical data...
Loading historical data...
Loading historical data...
Loading historical data...
Loading historical data...

Documentation

Showing up to 5 results
|